GSAT0214 (GALILEO 18) (41862 NORAD) Tracking and Keplerian Element Data

This shows tracking and keplerian element data for the satellite.

Feedback or suggestion? Click here.




ElementValue
Catalog41862
NameGSAT0214 (GALILEO 18)
Epoch Orbit4699
Epoch Day157.08548548
Epoch Year2024
RAAN121.648
Inclination55.084
Eccentricity0.0004621
Argument of Perigee290.4721
Mean Anonmoly69.4228
Mean Motion1.7047424
Decay Rate1.5E-07
L11 41862U 16069D 24157.08548548 .00000015 00000+0 00000+0 0 9998
L22 41862 55.0840 121.6480 0004621 290.4721 69.4228 1.70474240 46993



Live tracking and technical data element details for GSAT0214 (GALILEO 18) (NORAD 41862). GSAT0214 (GALILEO 18) can be tracked NOW for your location showing map with azimuth and elevation plus other details from your city location.







IsCatalogInMostPopularTable: catalog: 41862, numindb: 654
Update: records affected: 1



GetName: 41862 GSAT0214 (GALILEO 18)

Hit Count: updated at: Mon, 17 Jun 2024 23:16:14 GMT